User: anonymous   Login
Location: Mt. Chestnut Observatory
(40.9038°N, 79.9956°W)
Time: 12:30:56
(UTC-05:00)
Language:

Cosmos 2034 Rocket - Orbit

View from above orbital plane
View from above orbital plane
View from above satellite
View from above satellite

Ground track
Ground track

The orbit data is extracted from the following two-line orbital elements,

1 20150U 89059B   17051.86579476 +.00000066 +00000-0 +52537-4 0  9993
2 20150 082.9423 180.3804 0027897 245.8963 276.6064 13.75631961384189
Epoch (UTC): 20 February 2017 20:46:44
Eccentricity: 0.0027897
inclination: 82.9423°
perigee height: 959 km
apogee height: 1000 km
right ascension of ascending node: 180.3804°
argument of perigee: 245.8963°
revolutions per day: 13.75631961
mean anomaly at epoch: 276.6064°
orbit number at epoch: 38418

The dashed part of the orbit path shows where the satellite is in the earth's shadow,  

DLR